SCP
0 0 0 0 0 0 0 0 0 0 0 0 0 0 0 0 0 0 0 0 0 0 0 0 0 0 0 0 0 0 0 0 0 0 0 0 0 0 0 0 0 0 0
0 0 0 0 0 0 0 0 0 0 0 0 0 0 0 0 0 0 0 0 0 0 0 0 0 0 0 0 0 0 0 0 0 0 0 0 0 0 0 0 0 0 0
0 0 0 0 0 0 0 0 0 0 0 0 0 0 0 0 0 0 0 0 0 0 0 0 0 0 0 0 0 0 0 0 0 0 0 0 0 0 0 0 0 0 0
0 0 0 0 0 0 0 0 0 0 0 0 0 0 0 0 0 0 0 0 0 0 0 0 0 0 0 0 0 0 0 0 0 0 0 0 0 0 0 0 0 0 0
0 0 0 0 0 0 0 0 0 0 0 0 0 0 0 0 0 0 0 0 0 0 0 0 0 0 0 0 0 0 0 0 0 0 0 0 0 0 0 0 0 0 0
0 0 0 0 0 0 0 0 0 0 0 0 0 0 0 0 0 0 0 0 0 0 0 0 0 0 0 0 0 0 0 0 0 0 0 0 0 0 0 0 0 0 0
0 0 0 0 0 0 0 0 0 0 0 0 0 0 0 0 0 0 0 0 0 0 0 0 0 0 0 0 0 0 0 0 0 0 0 0 0 0 0 0 0 0 0
0 0 0 0 0 0 0 0 0 0 0 0 0 0 0 0 0 0 0 0 0 0 0 0 0 0 0 0 0 0 0 0 0 0 0 0 0 0 0 0 0 0 0
0 0 0 0 0 0 0 0 0 0 0 0 0 0 0 0 0 0 0 0 0 0 0 0 0 0 0 0 0 0 0 0 0 0 0 0 0 0 0 0 0 0 0
0 0 0 0 0 0 0 0 0 0 0 0 0 0 0 0 0 0 0 0 0 0 0 0 0 0 0 0 0 0 0 0 0 0 0 0 0 0 0 0 0 0 0
0 0 0 0 0 0 0 0 0 0 0 0 0 0 0 0 0 0 0 0 0 0 0 0 0 0 0 0 0 0 0 0 0 0 0 0 0 0 0 0 0 0 0
0 0 0 0 0 0 0 0 0 0 0 0 0 0 0 0 0 0 0 0 0 0 0 0 0 0 0 0 0 0 0 0 0 0 0 0 0 0 0 0 0 0 0
0 0 0 0 0 0 0 0 0 0 0 0 0 0 0 0 0 0 0 0 0 0 0 0 0 0 0 0 0 0 0 0 0 0 0 0 0 0 0 0 0 0 0
0 0 0 0 0 0 0 0 0 0 0 0 0 0 0 0 0 0 0 0 0 0 0 0 0 0 0 0 0 0 0 0 0 0 0 0 0 0 0 0 0 0 0
0 0 0 0 0 0 0 0 0 0 0 0 0 0 0 0 0 0 0 0 0 0 0 0 0 0 0 0 0 0 0 0 0 0 0 0 0 0 0 0 0 0 0
0 0 0 0 0 0 0 0 0 0 0 0 0 0 0 0 0 0 0 0 0 0 0 0 0 0 0 0 0 0 0 0 0 0 0 0 0 0 0 0 0 0 0
0 0 0 0 0 0 0 0 0 0 0 0 0 0 0 0 0 0 0 0 0 0 0 0 0 0 0 0 0 0 0 0 0 0 0 0 0 0 -0 0 0 0 0
0 0 0 0 0 0 0 0 0 0 0 0 0 0 0 0 0 0 0 0 0 0 0 0 0 0 0 0 0 0 0 0 0 0 0 0 0 0 -0 0 0 0 0
0 0 0 0 0 0 0 0 0 0 0 0 0 0 0 0 0 0 0 0 0 0 0 0 0 0 0 0 0 0 0 0 0 0 0 0 0 -0 -0 0 0 0 0
0 0 0 0 0 0 0 0 0 0 0 0 0 0 0 0 0 0 0 0 0 0 0 0 0 0 0 0 0 0 0 0 0 0 0 0 0 -0 0 0 0 0 0
0 0 0 0 0 0 0 0 0 0 0 0 0 0 0 0 0 0 0 0 0 0 0 0 0 0 0 0 0 0 0 0 0 0 0 0 0 -0 0 0 0 0 0
0 0 0 0 0 0 0 0 0 0 0 0 0 0 0 0 0 0 0 0 0 0 0 0 0 0 0 0 0 0 0 0 0 0 0 0 0 0 0 0 0 0 0
0 0 0 0 0 0 0 0 0 0 0 0 0 0 0 0 0 0 0 0 0 0 0 0 0 0 0 0 0 0 -0 -0 -0 -0 0 0 0 0 0 0 0 0 0
0 0 0 0 0 0 0 0 0 0 0 0 0 0 0 0 0 0 0 0 0 0 0 0 0 0 0 0 0 -0 -0 -0 -0 -0 0 0 0 0 0 0 0 0 0
0 0 0 0 0 0 0 0 0 0 0 0 0 0 0 0 0 0 0 0 0 0 0 0 0 0 0 0 -0 -0 -0 -0 -0 -0 -0 0 0 0 0 0 0 0 0
0 0 0 0 0 0 0 0 0 0 0 0 0 0 0 0 0 0 0 0 0 0 0 0 0 0 0 0 -0 -0 -0 -0 -0 -0 -0 0 0 0 0 0 0 0 0
Wind_Speed
14 13 12 11 10 9 9 9 9 8 9 8 7 6 6 5 4 4 4 5 6 7 8 9 11 10 9 8 8 10 11 13 20 24 20 18 19 17 16 16 18 20 21
13 11 11 10 11 10 9 9 9 9 8 8 7 6 5 5 4 4 5 6 7 9 9 10 12 10 12 10 10 12 13 14 17 25 23 19 22 19 18 19 19 19 19
12 12 12 13 13 12 10 9 9 9 8 8 7 6 6 5 4 5 5 6 8 9 10 11 12 13 14 11 13 14 13 14 15 19 23 19 18 17 19 20 21 19 21
14 14 15 15 14 12 10 10 10 10 9 8 8 7 6 5 5 6 7 8 8 10 11 13 13 14 15 14 14 15 15 16 17 18 19 19 18 17 17 16 18 15 16
15 15 15 12 12 11 11 11 10 10 9 8 7 6 5 5 5 7 8 8 10 11 13 14 15 16 20 19 16 15 16 16 16 17 19 18 17 16 16 14 17 15 16
14 14 12 12 13 12 12 11 11 10 9 8 7 7 6 5 10 13 10 8 10 12 13 14 15 16 19 26 29 29 27 23 20 19 19 21 21 19 17 16 16 17 18
13 12 13 13 13 13 12 11 11 10 9 9 8 7 6 7 12 12 13 10 10 11 13 14 13 13 16 18 23 29 28 31 33 27 25 25 24 21 21 21 19 19 19
13 13 13 14 14 13 12 12 11 9 9 8 7 6 5 6 10 11 13 10 10 12 13 15 16 17 16 20 21 21 22 22 26 23 23 25 24 22 22 23 22 22 21
14 15 15 16 15 14 14 13 11 10 8 7 6 5 5 6 9 11 12 6 8 12 13 14 16 18 24 29 23 22 24 21 25 33 36 35 38 39 32 20 18 18 19
15 14 14 15 16 15 14 12 10 9 8 6 5 5 5 5 9 11 12 5 6 10 11 12 16 20 27 30 22 21 24 23 22 22 25 28 27 27 34 26 19 18 17
11 12 12 13 13 14 12 11 10 9 8 6 4 3 4 6 9 10 11 5 7 9 10 11 12 24 30 32 30 21 25 28 21 20 19 18 18 16 17 18 18 17 18
13 14 13 13 12 12 13 11 10 9 8 6 4 4 4 5 5 7 11 12 14 9 10 11 14 28 32 32 24 25 31 27 15 15 15 15 14 14 14 15 18 19 19
14 14 13 13 11 12 13 13 11 8 7 6 6 4 3 2 3 7 10 14 16 10 10 19 25 28 27 20 22 29 22 14 13 14 14 15 14 15 15 14 16 18 20
16 15 14 14 13 11 9 10 9 9 8 7 6 5 3 2 3 4 4 5 9 10 9 13 20 22 19 19 18 16 13 13 15 15 15 15 15 14 14 13 14 13 14
16 15 14 13 13 12 10 8 9 7 8 8 6 5 4 3 4 7 5 4 4 6 7 5 7 9 10 11 12 12 13 14 14 14 15 15 14 14 14 13 13 12 14
17 16 14 12 11 11 11 9 11 11 12 11 10 7 4 4 4 5 8 10 11 14 7 5 8 9 11 12 13 14 14 14 15 15 15 14 15 15 15 14 13 13 14
18 17 13 13 13 12 12 12 11 10 11 11 10 8 5 2 1 4 7 10 10 11 4 5 7 9 10 12 13 14 15 16 16 15 15 15 15 14 14 14 14 14 13
17 17 15 13 13 12 12 11 11 11 10 7 6 6 3 2 3 4 8 8 5 6 3 5 7 9 10 12 13 14 15 16 15 16 16 15 14 14 14 14 13 14 14
16 14 13 12 12 11 11 10 10 10 9 7 4 3 1 2 5 7 8 3 2 4 5 5 6 8 10 11 12 14 15 16 17 17 15 16 14 14 14 14 14 17 16
14 18 16 14 13 12 11 11 10 9 9 7 6 4 1 2 2 3 2 2 2 4 5 6 7 8 10 11 12 13 15 16 17 16 16 15 14 14 15 16 14 14 14
14 16 19 15 13 12 12 11 10 9 9 7 5 5 6 3 2 0 2 2 3 4 5 6 8 9 9 10 12 14 17 16 16 17 17 17 16 15 14 14 14 14 14
13 13 13 13 13 12 11 10 9 9 9 8 5 3 6 4 2 1 2 3 4 4 4 5 7 8 9 10 13 15 16 17 17 18 19 18 17 16 15 14 14 13 13
14 15 14 12 12 14 12 9 9 9 8 6 6 4 3 2 1 1 3 4 4 5 5 5 6 8 8 10 12 14 16 17 17 20 21 20 18 17 16 16 17 17 15
14 15 15 13 12 11 11 10 9 8 8 6 5 4 3 2 1 2 3 4 4 5 5 5 6 10 14 13 12 14 16 18 17 16 23 21 21 18 17 17 17 18 16
14 15 14 13 12 11 11 10 9 8 7 6 5 4 3 2 1 2 3 3 5 6 8 8 6 8 14 18 18 18 24 27 20 18 19 18 21 21 21 20 18 18 16
14 15 13 12 11 10 10 9 8 8 6 5 4 4 3 1 1 2 3 3 5 6 7 7 9 12 16 14 18 25 27 27 24 23 19 17 21 21 23 18 23 19 19
Wind_Direction
198 192 188 183 175 170 172 172 165 159 156 160 164 172 183 194 201 216 233 246 256 262 263 265 267 267 267 263 260 258 256 257 268 280 286 291 291 288 286 281 279 278 276
196 186 182 172 170 173 173 169 163 160 158 158 161 172 186 198 204 221 243 251 257 264 266 268 270 272 268 266 264 262 261 259 264 275 282 286 286 287 286 282 282 278 275
184 182 178 177 177 177 170 165 163 160 157 160 164 178 190 201 211 228 241 253 257 262 266 268 271 272 271 268 268 267 266 266 264 270 276 280 281 282 283 280 277 275 273
184 183 185 184 178 170 163 163 165 162 161 165 173 179 188 204 224 239 249 255 258 263 266 268 270 269 272 272 271 269 269 270 267 268 271 275 275 276 274 277 279 275 275
183 186 186 172 162 159 161 163 163 164 163 162 166 176 191 207 225 234 244 254 262 268 271 272 272 271 272 274 274 273 272 271 270 270 271 273 272 274 272 274 277 282 280
181 182 167 160 159 161 161 162 164 161 159 163 175 184 201 217 236 246 252 259 272 277 280 280 278 275 275 279 280 280 278 277 276 273 273 271 273 272 272 270 274 278 281
172 164 160 158 159 159 159 163 167 166 164 173 181 190 208 230 248 260 270 277 279 281 282 283 282 281 282 282 283 284 282 278 275 274 274 273 275 274 273 271 269 269 272
163 161 159 157 158 158 163 170 169 165 169 175 182 191 208 238 259 271 280 283 283 281 281 283 286 288 288 290 289 286 283 279 276 273 270 271 270 269 267 268 270 271 271
168 168 164 161 160 164 171 173 169 164 166 170 170 181 211 247 270 280 284 276 278 285 286 287 289 292 294 298 298 294 291 287 285 280 275 273 270 267 263 260 257 258 263
176 168 162 162 164 169 171 166 160 157 156 161 174 186 209 236 267 276 287 275 281 290 291 290 292 295 299 303 301 297 295 295 292 288 282 278 274 270 268 261 259 260 262
155 152 156 161 163 162 158 155 149 148 151 159 167 197 220 234 258 278 293 292 290 297 300 302 302 305 306 307 306 300 296 300 297 295 289 281 273 263 257 251 248 250 254
149 153 156 158 158 158 153 147 148 148 150 160 179 206 222 225 243 278 300 309 311 306 306 305 305 310 313 314 312 306 308 311 304 298 294 289 282 272 260 252 249 246 246
152 156 156 156 158 159 155 150 150 154 158 166 174 182 188 193 261 293 305 313 318 316 306 310 315 318 319 318 314 316 317 311 306 303 301 298 293 285 277 266 256 251 249
159 160 161 161 159 158 154 153 155 161 166 167 169 171 173 199 241 261 269 298 315 315 313 320 321 319 320 319 318 318 314 310 310 306 304 303 303 296 284 273 264 256 254
164 166 169 167 160 157 156 159 159 163 166 160 161 160 168 200 250 300 328 317 320 320 342 328 313 319 323 321 318 316 316 314 313 311 307 306 304 303 299 291 277 263 255
170 173 172 167 160 152 146 145 159 156 164 164 162 163 183 221 281 339 346 349 352 355 3 322 323 326 324 321 319 319 318 316 315 313 310 308 307 305 301 298 290 275 262
177 173 170 166 159 155 153 151 152 154 163 160 159 163 171 198 25 12 8 10 6 9 5 316 320 321 319 317 316 316 316 314 314 314 312 310 308 304 300 296 293 286 275
175 172 169 164 158 157 156 156 154 155 157 154 158 159 146 123 88 45 35 29 359 353 323 311 314 314 315 315 314 314 313 313 315 316 314 312 309 305 299 294 289 286 284
173 170 164 155 151 149 147 145 147 150 149 146 145 153 62 61 73 47 51 50 329 314 313 311 308 310 312 312 312 312 311 312 315 318 318 317 313 306 299 294 288 284 280
172 166 157 149 145 145 144 144 146 148 145 148 153 161 167 97 66 14 13 330 309 302 308 312 311 308 309 309 312 314 312 313 318 322 323 321 315 308 302 296 290 285 278
162 159 152 144 145 146 146 146 147 147 146 145 146 172 155 136 140 228 298 300 300 303 309 310 308 309 310 312 314 314 313 315 322 328 328 324 319 314 307 299 292 285 277
155 152 149 142 140 140 139 139 140 140 142 140 140 157 131 124 143 229 281 287 287 284 285 291 298 300 305 312 315 315 315 318 327 333 331 327 323 319 314 308 301 293 283
151 144 136 132 131 132 131 132 135 137 138 139 145 145 136 140 168 257 283 289 297 300 297 292 296 301 308 312 311 312 314 320 331 336 334 329 328 326 322 317 312 304 291
145 137 131 129 130 133 133 133 135 135 138 142 144 145 151 163 206 273 286 294 302 300 296 296 293 298 307 315 315 314 315 322 334 339 335 332 331 330 328 325 321 314 303
137 130 128 130 133 133 133 133 134 135 140 145 145 145 147 157 230 286 297 304 306 304 306 305 298 306 312 313 314 317 321 330 343 348 340 336 336 336 336 334 333 328 321
128 125 124 126 128 130 132 134 136 139 143 142 139 138 141 156 277 299 308 310 311 308 308 307 306 311 312 312 318 322 328 338 350 354 347 342 342 342 344 343 342 341 339